{"data":{"norad_id":59071,"intl_designator":"2024-039U","name":"SITRO-AIS 28","alt_names":[],"object_type":"PAYLOAD","status":"ACTIVE","operator":null,"country":"CIS","launch_date":"2024-02-29","launch_site_code":"VOSTO","launch_vehicle":null,"mission":null,"orbit_class":"UNKNOWN","rcs_meters":null,"size_class":null,"mass_kg":null,"dimensions":null,"purposes":["tech_demo"],"wikipedia_slug":null,"has_3d_model":false,"image_url":null,"decayed_at":null,"tle_current":{"epoch":"2026-09-19T23:07:41.560608Z","epoch_age_seconds":60861,"freshness":"FRESH","line1":"1 59071U 24039U   26262.96367547  .00002319  00000+0  17921-3 0  9992","line2":"2 59071  95.3817 300.4378 0142302 356.1959   3.8172 14.94313239138891","mean_motion":14.94313239,"eccentricity":0.0142302,"inclination_deg":95.3817,"raan_deg":300.4378,"arg_perigee_deg":356.1959,"mean_anomaly_deg":3.8172,"bstar":0.00017921,"rev_number":13889,"period_min":96.365337763028,"perigee_km":485.42541801533,"apogee_km":683.58500034549,"semimajor_km":6962.6422091804,"source":"CELESTRAK","updated_at":"2026-09-20T09:00:48.038803Z"}}}